Погода Сегян-Кюель

Погода Сегян-Кюель : погода сейчас, прогноз погоды и архив. Всё, что Вы хотите узнать о погоде Сегян-Кюель!

Поиск расширенной информации на нашем сайте:

Другие новости

Новости СМИ2

Главная страница сайта

Новости сайта

03.07.2017

Напоминаем, что на нашем специализированном сайте Метеоцентр.Азия вы можете получить высокодетализированные автоматические прогнозы погоды по пунктам России, СНГ и мира в авиационном формате (включающие направление и скорость ветра, видимость, явления погоды, количество и форму облачности, нижнюю и верхнюю границу облачности).

Рекомендуем: недорогая финская сауна

Погода Сегян-Кюель - сегодня

Время (UTC), дата Ветер
(°,м/с) 
Видим.   Явления Облачность Т
(°С)
Тd
(°С)
f(%) Тe
(°С)
Pmin
(гПа)
dP
(гПа)
Po
(мм)
O2
(г/м3)
Тmin Tmax R s Состояние
почвы
09 21.11.17 тихо ()   20000 м  слаб. снег  10/0 средняя, верхняя 
[Ac trans|Cs]
-33.2 -36.3 74 -33  1009.5  1.1  735  339           
12 21.11.17 тихо ()   20000 м  слаб. снег  10/0 средняя, верхняя 
[Ac trans|Cs]
-32 -35 75 -32  1009.8  0.5  735  338    -32  0.6     
15 21.11.17 тихо ()   20000 м  слаб. снег  10/0 средняя, верхняя 
[Ac trans|Cs]
-31.1 -34.1 75 -31  1010.1  0.4  736  336           
18 21.11.17 тихо ()   20000 м  {снег}  10/0 средняя, верхняя 
[Ac trans|Cs]
-31.6 -34.5 76 -32  1010.1  -0.1  736  337           
21 21.11.17 тихо ()   20000 м    10/0 верхняя 
[Ci fib]
-32.7 -35.8 74 -33  1011  0.7  736  339           
00 22.11.17 тихо ()   20000 м    10/0 средняя, верхняя 
[Ac trans|Ci fib]
-36 -39 74 -36  1011.9  0.6  737  344  -36.3    0.3  27  неравномерный
сухой снег
100% 
03 22.11.17 тихо ()   20000 м    10/0 средняя, верхняя 
[Ac trans|Ci fib]
-34.3 -37.1 76 -34  1012.5  0.7  737  342           
06 22.11.17 тихо ()   20000 м    10/0 средняя, верхняя 
[Ac trans|Cs]
-31.2 -34.3 74 -31  1013.2  738  338           
09 22.11.17 тихо ()   20000 м    10/0 средняя, верхняя 
[Ac trans|Cs]
-30.9 -33.9 75 -31  1014.5  1.3  739  338           
12 22.11.17 тихо ()   20000 м    9/0 средняя 
[Ac trans]
-30.3 -33.4 74 -30  1015.5  1.2  740  337    -30.3       
15 22.11.17 тихо ()   20000 м    9/0 средняя 
[Ac trans]
-30 -33 75 -30  1016  0.5  740  337           
18 22.11.17 тихо ()   20000 м  слаб. снег  10/0 средняя, верхняя 
[Ac trans|Cs]
-30.9 -33.9 75 -31  1017.3  741  339           
21 22.11.17 тихо ()   20000 м  {снег}  10/0 средняя, верхняя 
[Ac trans|Cs]
-31.3 -34.3 75 -31  1017.7  0.4  741  339           
00 23.11.17 тихо ()   20000 м  {снег}  3/0 средняя, верхняя 
[Ac trans|Ci fib]
-35.5 -38.4 75 -36  1019.3  742  346  -35.7    0.0  27  неравномерный
сухой снег
100% 
03 23.11.17 тихо ()   20000 м    3/0 верхняя 
[Ci fib]
-37 -39.8 75 -37  1020.6  1.1  743  348           
06 23.11.17 тихо ()   20000 м    5/0 верхняя 
[Ci fib]
-36.4 -39.4 74 -36  1021.4  743  348           
09 23.11.17 тихо ()   20000 м  туман на расстоянии  10/0 верхняя 
[Ci fib]
-39.2 -41.8 77 -39  1023.3  1.3  744  352           
12 23.11.17 тихо ()   20000 м    10/0 средняя, верхняя 
[Ac trans|Cs]
-36.9 -39.8 74 -37  1023.3  0.3  745  349    -36.4       
15 23.11.17 тихо ()   20000 м    10/0 средняя, верхняя 
[Ac trans|Cs]
-34.8 -37.7 75 -35  1022.4  -0.5  744  346           
18 23.11.17 130 (ЮВ) 20000 м    10/0 средняя, верхняя 
[Ac trans|Cs]
-34.2 -37.1 75 -35  1021.5  -0.8  744  345           
21 23.11.17 360 (С) 20000 м  позёмок  4/0 верхняя 
[Ci fib]
-22 -28.7 55 -30  1019  -1  743  327           
00 24.11.17 010 (С) 20000 м  позёмок  8/0 средняя, верхняя 
[Ac trans|Ci fib]
-22.3 -30 50 -30  1018.5  -0.5  743  328  -37.1      27  неравномерный
сухой снег
100% 
03 24.11.17 020 (С) 20000 м  позёмок  8/0 средняя, верхняя 
[Ac trans|Ci fib]
-22.4 -30 50 -30  1017.2  -1.3  742  327           
06 24.11.17 030 (СВ) 20000 м  позёмок  9/0 средняя 
[Ac trans]
-22.2 -29.9 50 -31  1015.5  -1.6  740  327           
09 24.11.17 020 (С) 20000 м  позёмок  5/0 средняя, верхняя 
[Ac trans|Ci fib]
-22.5 -30.1 50 -31  1013.8  -1.7  739  326           
Время (UTC), дата Ветер
(°,м/с) 
Видим.   Явления Облачность Т
(°С)
Тd
(°С)
f(%) Тe
(°С)
Pmin
(гПа)
dP
(гПа)
Po
(мм)
O2
(г/м3)
Тmin Tmax R s Состояние
почвы

Для получения пояснительной информации подведите курсор к названию столбца.

ПОГОДА Сегян-Кюель - архив

Всё, что Вы хотите узнать о погоде Сегян-Кюель - удобно и подробно!

Выберите нужную дату (начиная с 1 января 2015* года) и нажмите кнопку "Найти".
Будут отображены архивные сводки погоды по пункту Сегян-Кюель, начиная с указанной даты.


Отображать данные в формате CSV (для использования в таблицах Excel)


Внимание! Наш архив погоды предназначен исключительно для личного некоммерческого использования в познавательных целях. Если Вам необходимы официальные справки о состоянии погоды (для производственных, юридических, коммерческих и т.п. целей), обращайтесь в органы Росгидромета.

*Примечание: данная дата относится к архиву по метеостанциям СССР (Россия, СНГ, Балтия).
Архив по метеостанциям Зарубежной Европы и Азии (кроме Китая) хранится 10 дней, по другим регионам земного шара (Китай, Африка, Америка, Австралия, Океания) - 1 день.

Сегян-Кюель - район местоположения метеостанции


Название, широта, долгота, высота метеостанции:
Сегян-Кюель 64.00°ш. 130.30°д. 211 м над ур. моря [Российская Федерация]

Дополнительная информация

В oтличие oт бoльшинства пoгoдных сайтoв мы публикуем пoдрoбную метеoинфoрмацию в детальнoм прoфессиoнальнoм фoрмате.

Характеристики температуры и влажнoсти вoздуха измеряются на высoте 2 м в тени вдали oт зданий и деревьев.
Скoрoсть ветра измеряется на высoте 10 м (на урoвне рoста челoвека скoрoсть ветра ниже в 1.5-2 раза). Если метеoстанция нахoдится в гoрoде или в лесу, тo скoрoсть ветра занижена на 2-4 м/с пo сравнению с oткрытым местoм. Скoрoсть ветра над акватoриями крупных рек и oзёр, а также на вершинах хoлмoв на 2-5 м/с выше, чем в oбычных услoвиях.
Атмoсфернoе давление в разных тoчках местнoсти мoжет значительнo oтличаться oт давления на метеoстанции, в зависимoсти oт услoвий рельефа (при пoдъёме на 10 м давление пoнижается примернo на 1 мм рт.ст.).